GW4504 Weather Reports


Display with metric or nautical units.
time (UTC)temp
F
wind
direction
speed
MPH
gust
MPH
rain 1hr
in
rain 24hr
in
rain mn
in
humidity
%
barometer
mb
20260506033017 49 355 6.0 13.0 0.00 0.02 0.00 76 1012.0
20260506031516 49 54 4.0 13.0 0.00 0.02 0.00 76 1011.7
20260506030012 49 30 6.0 12.0 0.00 0.02 0.00 77 1011.3
20260506024511 49 304 5.0 13.0 0.00 0.02 0.00 78 1010.9
20260506023008 49 48 6.0 17.0 0.00 0.02 0.00 78 1010.5
20260506021505 49 46 7.0 16.0 0.00 0.02 0.00 79 1009.9
20260506020003 49 59 6.0 16.0 0.00 0.02 0.00 79 1010.0
20260506014503 49 19 8.0 18.0 0.00 0.02 0.00 79 1009.8
20260506013057 50 360 7.0 12.0 0.00 0.02 0.00 79 1009.7
20260506011558 50 12 3.0 16.0 0.00 0.02 0.00 78 1009.0
20260506010053 50 45 6.0 15.0 0.00 0.02 0.00 78 1008.9
20260506004551 50 69 5.0 13.0 0.00 0.02 0.00 79 1008.8
20260506003049 49 23 6.0 15.0 0.00 0.02 0.00 79 1008.8
20260506001556 50 15 9.0 14.0 0.00 0.02 0.00 80 1008.6
20260506000057 50 5 7.0 15.0 0.00 0.02 0.00 79 1008.4
20260505234544 50 71 9.0 15.0 0.00 0.02 0.00 78 1008.8
20260505233048 50 44 6.0 16.0 0.00 0.02 0.00 77 1008.4
20260505231541 50 36 10.0 20.0 0.00 0.02 0.00 76 1008.4
20260505230044 51 60 6.0 16.0 0.00 0.02 0.00 76 1008.1
20260505224542 51 44 10.0 18.0 0.00 0.02 0.00 76 1007.7
20260505223036 51 42 9.0 21.0 0.00 0.02 0.00 76 1007.6
20260505221527 52 29 7.0 14.0 0.00 0.02 0.00 76 1007.2
20260505220026 52 15 13.0 22.0 0.00 0.02 0.00 74 1007.5
20260505214524 52 34 10.0 20.0 0.00 0.02 0.00 74 1006.9
20260505213026 52 23 7.0 20.0 0.00 0.02 0.00 74 1006.9
20260505211527 53 42 13.0 22.0 0.00 0.02 0.00 73 1007.1
20260505210015 53 13 9.0 22.0 0.00 0.02 0.00 73 1006.9
20260505204512 53 5 7.0 17.0 0.00 0.02 0.00 74 1006.9
20260505203015 53 27 13.0 19.0 0.00 0.02 0.00 73 1006.7
20260505201510 53 5 10.0 22.0 0.00 0.02 0.00 74 1006.6
20260505200007 53 42 12.0 20.0 0.00 0.02 0.00 75 1006.9
20260505194507 53 49 8.0 18.0 0.00 0.02 0.00 75 1006.8
20260505193003 54 47 12.0 25.0 0.00 0.02 0.00 74 1006.7
20260505191501 54 69 13.0 27.0 0.00 0.02 0.00 75 1006.1
20260505190111 54 28 11.0 21.0 0.00 0.02 0.00 76 1006.3
20260505184557 54 30 9.0 19.0 0.00 0.02 0.00 77 1006.2
20260505183053 54 11 10.0 24.0 0.00 0.02 0.00 76 1006.1
20260505181631 54 43 7.0 17.0 0.00 0.02 0.00 77 1006.0
20260505174550 54 43 9.0 19.0 0.00 0.02 0.00 78 1005.5
20260505173046 54 22 7.0 16.0 0.00 0.02 0.00 80 1005.5
20260505171549 54 38 11.0 20.0 0.00 0.02 0.00 81 1005.2
20260505170042 54 36 11.0 20.0 0.00 0.02 0.00 82 1004.9
20260505164540 53 30 11.0 23.0 0.00 0.02 0.00 82 1004.6
20260505163037 54 35 11.0 26.0 0.00 0.02 0.00 83 1004.6
20260505161536 54 25 8.0 20.0 0.00 0.02 0.00 85 1004.4
20260505153036 53 38 7.0 22.0 0.00 0.02 0.00 88 1003.7
20260505151524 54 355 11.0 20.0 0.00 0.02 0.00 88 1003.6
20260505124551 63 59 4.0 11.0 0.00 0.02 0.00 88 1001.8
20260505123054 63 52 5.0 15.0 0.00 0.02 0.00 88 1001.5
20260505121547 63 55 6.0 11.0 0.00 0.02 0.00 87 1001.3
20260505120104 63 23 4.0 11.0 0.00 0.02 0.00 85 1001.3
20260505114543 65 24 4.0 11.0 0.00 0.02 0.00 83 1001.1
20260505113042 65 36 3.0 8.0 0.00 0.02 0.00 82 1000.7
20260505111542 65 9 5.0 9.0 0.00 0.02 0.00 81 1000.6
20260505110105 65 147 6.0 13.0 0.00 0.02 0.00 81 999.7
20260505101539 64 77 4.0 10.0 0.00 0.02 0.00 86 1000.2
20260505100038 64 79 3.0 11.0 0.00 0.02 0.00 87 1000.0
20260505094536 64 49 5.0 11.0 0.00 0.02 0.00 86 1000.0
20260505093034 64 115 5.0 11.0 0.00 0.02 0.00 85 999.9
20260505091534 64 78 4.0 8.0 0.00 0.02 0.00 84 999.8
20260505090036 64 111 5.0 11.0 0.00 0.02 0.00 82 999.7
20260505084536 64 119 3.0 9.0 0.00 0.02 0.00 82 999.6
20260505083031 64 86 3.0 9.0 0.00 0.02 0.00 82 999.5
20260505081531 64 114 2.0 9.0 0.00 0.02 0.00 82 999.5
20260505080030 64 154 5.0 10.0 0.00 0.02 0.00 81 999.6
20260505074530 64 73 4.0 11.0 0.00 0.02 0.00 82 999.7
20260505073025 64 163 3.0 9.0 0.00 0.02 0.00 82 1000.0
20260505071525 64 51 8.0 14.0 0.00 0.02 0.00 81 1000.1
20260505070020 64 71 5.0 12.0 0.00 0.02 0.00 80 1000.6
20260505064515 65 103 4.0 10.0 0.00 0.02 0.00 79 1000.7
20260505063011 66 67 6.0 11.0 0.00 0.02 0.00 79 1001.2
20260505061510 67 65 3.0 10.0 0.00 0.02 0.00 81 1001.2
20260505060008 67 81 5.0 13.0 0.00 0.02 0.00 82 1001.4
20260505054516 66 19 5.0 10.0 0.00 0.02 0.00 83 1001.7
20260505053005 66 5 4.0 10.0 0.00 0.02 0.00 83 1001.8
20260505051502 66 9 2.0 5.0 0.00 0.02 0.00 83 1001.4
20260505050104 67 355 2.0 4.0 0.00 0.02 0.00 81 1000.8
20260505041604 67 114 5.0 10.0 0.02 0.02 0.02 78 999.9
20260505034609 67 138 4.0 11.0 0.02 0.02 0.02 78 1000.0